Voltar ao catálogo

STARLINK-35816

AtivoComunicaçõesVLEO
NORAD 66499·PAYLOAD·🇺🇸 United States

Lançado Nov 15, 2025 de Cape Canaveral Space Force Station

Loading…

Próximas Passagens (próximas 24 horas)

TLE

AtualizadoSource: CelesTrak SupGP

Época: Sep 15, 2026, 03:43 UTC

1 66499C 25263Q   26258.15534722  .00043662  00000+0  15817-2 0  2586
2 66499  43.0013   1.0262 0001515 273.4686   6.2634 15.27551799    19

Acompanhe STARLINK-35816 em tempo real com AllMySat

Download on the App Store